Home > Weather > Wernigerode > Past weeks

Flag for Germany Past Weather in Wernigerode, Saxony-Anhalt, Germany — Yesterday and Last 2 Weeks

Now
59 °F

Passing clouds.


Feels Like: 58 °F
Forecast: 56 / 63 °F
Wind: 6 mph from West

Location: Erfurt-Bindersleben

Current Time: Jun 1, 2016 at 1:50:10 AM

Latest Report: Jun 1, 2016 at 1:20 AM


Visibility: N/A

Pressure: 29.89 "Hg

Humidity: 100%

Dew Point: 59 °F

Location of WernigerodeLocation

Past Weather in Wernigerode — Graph

°F

Wernigerode Temperature Yesterday

Maximum temperature yesterday: 72 °F (at 1:20 PM)
Minimum temperature yesterday: 54 °F (at 3:20 AM)
Average temperature yesterday: 63 °F

High & Low Weather Summary for the Past Weeks

 TemperatureHumidityPressure
High82 °F (May 22, 2:20 PM)100% (May 27, 10:50 AM)30.09 "Hg (May 27, 10:50 AM)
Low39 °F (May 17, 2:50 AM)25% (May 22, 2:50 PM)29.59 "Hg (May 30, 2:50 AM)
Average59 °F74%29.91 "Hg
* Reported May 17 12:20 AM — Jun 1 12:20 AM, Wernigerode, Weather by CustomWeather, © 2016

Note: Actual official high and low records may vary slightly from our data, if they occured in-between our weather recording intervals... More about our weather records

Advertising

Wernigerode Weather History for the Previous 24 Hours

Scroll right to see more
 ConditionsComfort  
Time TempWeatherWind HumidityBarometerVisibility
12:20 AM
Wed, Jun 1
61 °FPassing clouds.6 mph94%29.89 "HgN/A
11:50 PM
Tue, May 31
61 °FSprinkles. Partly cloudy.8 mph88%29.89 "HgN/A
11:20 PM61 °FPartly cloudy.10 mph88%29.89 "HgN/A
10:50 PM63 °FPassing clouds.9 mph83%29.89 "HgN/A
10:20 PM63 °FPassing clouds.9 mph77%29.89 "HgN/A
9:50 PM63 °FPartly sunny.9 mph77%29.89 "HgN/A
9:20 PM63 °FBroken clouds.9 mph77%29.89 "HgN/A
8:50 PM64 °FScattered showers. Broken clouds.8 mph73%29.86 "HgN/A
8:20 PM64 °FScattered showers. Broken clouds.8 mph78%29.86 "HgN/A
7:50 PM66 °FScattered showers. Broken clouds.8 mph68%29.86 "HgN/A
7:20 PM66 °FScattered showers. Broken clouds.8 mph73%29.86 "HgN/A
6:50 PM68 °FBroken clouds.9 mph69%29.86 "HgN/A
6:20 PM70 °FBroken clouds.8 mph64%29.86 "HgN/A
5:50 PM72 °FBroken clouds.7 mph61%29.86 "HgN/A
5:20 PM70 °FBroken clouds.5 mph60%29.86 "HgN/A
4:50 PM72 °FBroken clouds.6 mph57%29.86 "HgN/A
4:20 PM72 °FScattered clouds.7 mph57%29.86 "HgN/A
3:50 PM72 °FScattered clouds.5 mph53%29.86 "HgN/A
3:20 PM72 °FScattered clouds.5 mph53%29.86 "HgN/A
2:50 PM70 °FScattered clouds.6 mph60%29.86 "HgN/A
2:20 PM70 °FScattered clouds.7 mph64%29.86 "HgN/A
1:50 PM72 °FScattered clouds.6 mph57%29.86 "HgN/A
1:20 PM72 °FScattered clouds.6 mph53%29.86 "HgN/A
12:50 PM70 °FScattered clouds.5 mph53%29.86 "HgN/A
12:20 PM68 °FScattered clouds.3 mph56%29.86 "HgN/A
11:50 AM68 °FScattered clouds.5 mph56%29.86 "HgN/A
11:20 AM68 °FScattered clouds.5 mph64%29.86 "HgN/A
10:50 AM68 °FScattered clouds.3 mph64%29.86 "HgN/A
10:20 AM64 °FScattered clouds.3 mph68%29.86 "HgN/A
9:50 AM64 °FScattered clouds.3 mph68%29.86 "HgN/A
9:20 AM64 °FPassing clouds.6 mph68%29.86 "HgN/A
8:50 AM63 °FPassing clouds.7 mph77%29.83 "HgN/A
8:20 AM61 °FPassing clouds.8 mph83%29.83 "HgN/A
7:50 AM59 °FSunny.7 mph82%29.83 "Hg10 mi
7:20 AM57 °FPassing clouds.7 mph88%29.83 "HgN/A
6:50 AM57 °FPassing clouds.7 mph88%29.83 "HgN/A
6:20 AM55 °FPassing clouds.7 mph88%29.83 "HgN/A
5:50 AM54 °FPassing clouds.6 mph94%29.80 "HgN/A
5:20 AM54 °FClear.7 mph94%29.80 "Hg10 mi
4:50 AM54 °FClear.6 mph94%29.80 "Hg10 mi
4:20 AM54 °FClear.6 mph94%29.80 "Hg10 mi
3:50 AM54 °FClear.5 mph94%29.80 "Hg10 mi
3:20 AM54 °FClear.5 mph100%29.80 "Hg10 mi
2:50 AM55 °FClear.7 mph94%29.77 "Hg10 mi
2:20 AM55 °FClear.7 mph94%29.77 "Hg10 mi
1:50 AM57 °FClear.5 mph88%29.77 "Hg10 mi
1:20 AM57 °FClear.7 mph88%29.77 "Hg10 mi
Weather by CustomWeather, © 2016

See weather overviewHow to use our weather pages